Location: Grand Rapids
(42.9630°N, 85.6680°W)
Time: 15:01:48
(UTC-04:00)

Envisat - Pass Details

Date: 25 April 2024
Orbit: 762 x 764 km, 98.3° (Epoch: 20 May)

Event Time Altitude Azimuth Distance (km) Brightness Sun altitude
Rises 05:09:17 0° 12° (NNE) 3,237 7.0 -16.2°
Reaches altitude 10° 05:11:35 10° 13° (NNE) 2,306 6.2 -15.8°
Maximum altitude 05:16:41 88° 283° (WNW) 769 2.9 -15.1°
Enters shadow 05:21:09 13° 196° (SSW) 2,059 4.8 -14.4°
